| time (UTC) | temp F | wind direction | speed knots | gust knots | rain 1hr in | rain 24hr in | rain mn in | humidity % | barometer mb |
| 20260504185629 | 69 | 194 | 0.9 | 9.6 | 0.00 | 0.00 | 0.00 | 35 | 1010.6 |
| 20260504185130 | 69 | 234 | 2.6 | 9.6 | 0.00 | 0.00 | 0.00 | 35 | 1010.5 |
| 20260504184629 | 69 | 238 | 1.7 | 7.0 | 0.00 | 0.00 | 0.00 | 36 | 1010.7 |
| 20260504184129 | 69 | 292 | 1.7 | 7.0 | 0.00 | 0.00 | 0.00 | 36 | 1010.6 |
| 20260504183629 | 69 | 248 | 4.3 | 8.7 | 0.00 | 0.00 | 0.00 | 35 | 1010.7 |
| 20260504183129 | 70 | 185 | 2.6 | 8.7 | 0.00 | 0.00 | 0.00 | 35 | 1010.8 |
| 20260504182629 | 70 | 238 | 3.5 | 6.1 | 0.00 | 0.00 | 0.00 | 34 | 1010.7 |
| 20260504181629 | 70 | 223 | 3.5 | 7.8 | 0.00 | 0.00 | 0.00 | 34 | 1010.8 |
| 20260504181130 | 70 | 250 | 1.7 | 7.8 | 0.00 | 0.00 | 0.00 | 34 | 1011.0 |
| 20260504180629 | 70 | 182 | 1.7 | 7.8 | 0.00 | 0.00 | 0.00 | 35 | 1011.0 |
| 20260504180129 | 70 | 211 | 2.6 | 6.1 | 0.00 | 0.00 | 0.00 | 34 | 1011.1 |
| 20260504175629 | 69 | 219 | 2.6 | 8.7 | 0.00 | 0.00 | 0.00 | 34 | 1011.0 |
| 20260504175129 | 69 | 200 | 1.7 | 8.7 | 0.00 | 0.00 | 0.00 | 34 | 1011.0 |
| 20260504174629 | 69 | 238 | 4.3 | 7.0 | 0.00 | 0.00 | 0.00 | 33 | 1011.0 |
| 20260504174129 | 69 | 183 | 0.9 | 7.0 | 0.00 | 0.00 | 0.00 | 33 | 1011.1 |
| 20260504173129 | 69 | 240 | 2.6 | 10.4 | 0.00 | 0.00 | 0.00 | 37 | 1011.1 |
| 20260504172629 | 69 | 227 | 3.5 | 10.4 | 0.00 | 0.00 | 0.00 | 34 | 1011.2 |
| 20260504172129 | 69 | 240 | 0.9 | 10.4 | 0.00 | 0.00 | 0.00 | 34 | 1011.3 |
| 20260504171629 | 69 | 225 | 5.2 | 6.1 | 0.00 | 0.00 | 0.00 | 35 | 1011.4 |
| 20260504171129 | 69 | 223 | 4.3 | 6.1 | 0.00 | 0.00 | 0.00 | 36 | 1011.5 |
| 20260504170629 | 68 | 203 | 3.5 | 6.1 | 0.00 | 0.00 | 0.00 | 35 | 1011.7 |
| 20260504170129 | 68 | 235 | 3.5 | 7.0 | 0.00 | 0.00 | 0.00 | 35 | 1011.8 |
| 20260504151128 | 64 | 284 | 0.9 | 7.0 | 0.00 | 0.00 | 0.00 | 39 | 1012.8 |
| 20260504150628 | 63 | 263 | 1.7 | 7.0 | 0.00 | 0.00 | 0.00 | 39 | 1012.9 |
| 20260504150128 | 63 | 116 | 7.0 | 7.8 | 0.00 | 0.00 | 0.00 | 40 | 1012.9 |
| 20260504140628 | 60 | 268 | 2.6 | 7.8 | 0.00 | 0.00 | 0.00 | 41 | 1013.1 |
| 20260504140128 | 60 | 325 | 1.7 | 4.3 | 0.00 | 0.00 | 0.00 | 42 | 1013.0 |
| 20260504120127 | 49 | 253 | 0.9 | 2.6 | 0.00 | 0.00 | 0.00 | 55 | 1013.5 |
| 20260504110626 | 44 | 182 | 0.0 | 1.7 | 0.00 | 0.00 | 0.00 | 67 | 1013.4 |
| 20260504100126 | 43 | 215 | 0.0 | 1.7 | 0.00 | 0.00 | 0.00 | 66 | 1013.1 |
| 20260504090126 | 43 | 261 | 0.9 | 1.7 | 0.00 | 0.00 | 0.00 | 67 | 1013.4 |
| 20260504081626 | 44 | 261 | 0.9 | 0.9 | 0.00 | 0.00 | 0.00 | 63 | 1013.5 |
| 20260504080626 | 45 | 261 | 0.0 | 0.9 | 0.00 | 0.00 | 0.00 | 63 | 1013.6 |
| 20260504080126 | 45 | 261 | 0.9 | 1.7 | 0.00 | 0.00 | 0.00 | 63 | 1013.6 |
| 20260504070125 | 45 | 92 | 0.0 | 2.6 | 0.00 | 0.00 | 0.00 | 62 | 1013.4 |
| 20260504060125 | 44 | 229 | 0.0 | 1.7 | 0.00 | 0.00 | 0.00 | 63 | 1013.0 |
| 20260504050624 | 44 | 194 | 0.0 | 1.7 | 0.00 | 0.00 | 0.00 | 62 | 1012.9 |
| 20260504045125 | 44 | 143 | 0.0 | 1.7 | 0.00 | 0.00 | 0.00 | 61 | 1012.7 |
| 20260504044625 | 45 | 143 | 0.9 | 1.7 | 0.00 | 0.00 | 0.00 | 61 | 1012.8 |
| 20260504044124 | 45 | 143 | 0.0 | 1.7 | 0.00 | 0.00 | 0.00 | 60 | 1012.9 |
| 20260504043625 | 45 | 143 | 0.0 | 1.7 | 0.00 | 0.00 | 0.00 | 60 | 1012.8 |
| 20260504043124 | 45 | 190 | 0.0 | 1.7 | 0.00 | 0.00 | 0.00 | 60 | 1012.8 |
| 20260504042624 | 45 | 190 | 0.0 | 1.7 | 0.00 | 0.00 | 0.00 | 60 | 1012.8 |
| 20260504042124 | 45 | 190 | 1.7 | 1.7 | 0.00 | 0.00 | 0.00 | 60 | 1012.7 |
| 20260504041624 | 45 | 221 | 0.0 | 1.7 | 0.00 | 0.00 | 0.00 | 60 | 1012.7 |
| 20260504041124 | 45 | 227 | 0.9 | 0.9 | 0.00 | 0.00 | 0.00 | 59 | 1012.7 |
| 20260504040624 | 45 | 227 | 0.0 | 1.7 | 0.00 | 0.00 | 0.00 | 59 | 1012.6 |
| 20260504040124 | 45 | 227 | 0.0 | 1.7 | 0.00 | 0.00 | 0.00 | 59 | 1012.4 |
| 20260504035624 | 45 | 227 | 0.0 | 1.7 | 0.00 | 0.00 | 0.00 | 59 | 1012.2 |
| 20260504035124 | 45 | 227 | 0.9 | 1.7 | 0.00 | 0.00 | 0.00 | 60 | 1012.2 |
| 20260504034624 | 45 | 227 | 0.0 | 1.7 | 0.00 | 0.00 | 0.00 | 60 | 1012.3 |
| 20260504034124 | 45 | 233 | 0.0 | 3.5 | 0.00 | 0.00 | 0.00 | 61 | 1012.2 |
| 20260504033624 | 45 | 276 | 0.0 | 3.5 | 0.00 | 0.00 | 0.00 | 60 | 1012.3 |
| 20260504032624 | 45 | 245 | 0.9 | 1.7 | 0.00 | 0.00 | 0.00 | 62 | 1012.1 |
| 20260504032124 | 45 | 300 | 0.0 | 2.6 | 0.00 | 0.00 | 0.00 | 61 | 1012.3 |
| 20260504031624 | 45 | 316 | 0.9 | 2.6 | 0.00 | 0.00 | 0.00 | 62 | 1012.3 |
| 20260504031124 | 44 | 277 | 1.7 | 2.6 | 0.00 | 0.00 | 0.00 | 62 | 1012.3 |
| 20260504030624 | 44 | 286 | 0.9 | 2.6 | 0.00 | 0.00 | 0.00 | 63 | 1012.3 |
| 20260504030124 | 44 | 263 | 0.9 | 1.7 | 0.00 | 0.00 | 0.00 | 64 | 1012.3 |
| 20260504025124 | 44 | 115 | 0.0 | 0.9 | 0.00 | 0.00 | 0.00 | 64 | 1012.3 |
| 20260504024624 | 44 | 115 | 0.0 | 0.9 | 0.00 | 0.00 | 0.00 | 64 | 1012.2 |
| 20260504023624 | 44 | 115 | 0.0 | 0.0 | 0.00 | 0.00 | 0.00 | 62 | 1012.3 |
| 20260504023124 | 44 | 115 | 0.0 | 0.9 | 0.00 | 0.00 | 0.00 | 62 | 1012.4 |
| 20260504022624 | 45 | 115 | 0.0 | 0.9 | 0.00 | 0.00 | 0.00 | 61 | 1012.5 |
| 20260504022124 | 45 | 115 | 0.9 | 0.9 | 0.00 | 0.00 | 0.00 | 61 | 1012.5 |
| 20260504021624 | 45 | 115 | 0.0 | 0.9 | 0.00 | 0.00 | 0.00 | 60 | 1012.4 |
| 20260504021124 | 45 | 115 | 0.0 | 0.0 | 0.00 | 0.00 | 0.00 | 59 | 1012.5 |
| 20260504020623 | 45 | 115 | 0.0 | 0.0 | 0.00 | 0.00 | 0.00 | 58 | 1012.5 |
| 20260504020123 | 45 | 115 | 0.0 | 0.0 | 0.00 | 0.00 | 0.00 | 58 | 1012.5 |
| 20260504015623 | 46 | 115 | 0.0 | 0.0 | 0.00 | 0.00 | 0.00 | 57 | 1012.5 |
| 20260504015123 | 46 | 115 | 0.0 | 0.0 | 0.00 | 0.00 | 0.00 | 57 | 1012.5 |
| 20260504014623 | 46 | 115 | 0.0 | 0.0 | 0.00 | 0.00 | 0.00 | 56 | 1012.4 |
| 20260504014123 | 46 | 115 | 0.0 | 0.0 | 0.00 | 0.00 | 0.00 | 56 | 1012.4 |
| 20260504013623 | 47 | 115 | 0.0 | 0.0 | 0.00 | 0.00 | 0.00 | 55 | 1012.4 |
| 20260504011623 | 48 | 115 | 0.0 | 0.0 | 0.00 | 0.00 | 0.00 | 54 | 1012.3 |
| 20260504011123 | 48 | 115 | 0.0 | 0.0 | 0.00 | 0.00 | 0.00 | 53 | 1012.2 |
| 20260504010623 | 48 | 115 | 0.0 | 0.0 | 0.00 | 0.00 | 0.00 | 53 | 1012.2 |
| 20260504010123 | 49 | 115 | 0.0 | 0.0 | 0.00 | 0.00 | 0.00 | 53 | 1012.3 |
| 20260504005623 | 49 | 115 | 0.0 | 0.0 | 0.00 | 0.00 | 0.00 | 52 | 1012.0 |
| 20260504005123 | 49 | 115 | 0.0 | 0.0 | 0.00 | 0.00 | 0.00 | 52 | 1011.9 |
| 20260504004623 | 50 | 115 | 0.0 | 0.0 | 0.00 | 0.00 | 0.00 | 52 | 1011.9 |
| 20260504004123 | 50 | 115 | 0.0 | 0.0 | 0.00 | 0.00 | 0.00 | 52 | 1011.9 |
| 20260504003623 | 50 | 115 | 0.0 | 0.0 | 0.00 | 0.00 | 0.00 | 51 | 1011.8 |
| 20260504002623 | 51 | 115 | 0.0 | 0.0 | 0.00 | 0.00 | 0.00 | 49 | 1011.9 |
| 20260504002123 | 51 | 115 | 0.0 | 0.0 | 0.00 | 0.00 | 0.00 | 48 | 1011.9 |
| 20260504001623 | 52 | 115 | 0.0 | 0.0 | 0.00 | 0.00 | 0.00 | 48 | 1011.8 |
| 20260504001123 | 52 | 115 | 0.0 | 0.0 | 0.00 | 0.00 | 0.00 | 47 | 1011.7 |
| 20260504000623 | 52 | 115 | 0.0 | 0.9 | 0.00 | 0.00 | 0.00 | 47 | 1011.7 |
| 20260504000123 | 53 | 115 | 0.0 | 0.9 | 0.00 | 0.00 | 0.00 | 47 | 1011.7 |
| 20260503235623 | 53 | 52 | 0.0 | 0.0 | 0.00 | 0.00 | 0.00 | 46 | 1011.6 |
| 20260503235123 | 53 | 52 | 0.0 | 0.9 | 0.00 | 0.00 | 0.00 | 45 | 1011.5 |
| 20260503234623 | 53 | 53 | 0.0 | 1.7 | 0.00 | 0.00 | 0.00 | 45 | 1011.4 |
| 20260503234123 | 53 | 69 | 0.0 | 3.5 | 0.00 | 0.00 | 0.00 | 45 | 1011.4 |
| 20260503233623 | 53 | 322 | 0.9 | 3.5 | 0.00 | 0.00 | 0.00 | 44 | 1011.4 |
| 20260503233123 | 53 | 205 | 1.7 | 1.7 | 0.00 | 0.00 | 0.00 | 44 | 1011.3 |
| 20260503232623 | 54 | 165 | 0.9 | 3.5 | 0.00 | 0.00 | 0.00 | 44 | 1011.3 |
| 20260503232123 | 54 | 327 | 0.0 | 3.5 | 0.00 | 0.00 | 0.00 | 44 | 1011.2 |
| 20260503230122 | 54 | 59 | 0.9 | 7.8 | 0.00 | 0.00 | 0.00 | 43 | 1011.2 |
| 20260503225123 | 54 | 250 | 1.7 | 6.1 | 0.00 | 0.00 | 0.00 | 41 | 1011.0 |
| 20260503224623 | 54 | 295 | 0.9 | 5.2 | 0.00 | 0.00 | 0.00 | 42 | 1010.9 |
| 20260503224123 | 54 | 304 | 1.7 | 5.2 | 0.00 | 0.00 | 0.00 | 41 | 1011.0 |
| 20260503223123 | 55 | 261 | 3.5 | 6.1 | 0.00 | 0.00 | 0.00 | 39 | 1011.0 |
| 20260503222622 | 55 | 344 | 0.0 | 3.5 | 0.00 | 0.00 | 0.00 | 39 | 1011.1 |
| 20260503222122 | 55 | 288 | 3.5 | 5.2 | 0.00 | 0.00 | 0.00 | 39 | 1011.0 |
| 20260503221622 | 55 | 23 | 1.7 | 6.1 | 0.00 | 0.00 | 0.00 | 39 | 1011.0 |
| 20260503221122 | 55 | 339 | 1.7 | 6.1 | 0.00 | 0.00 | 0.00 | 37 | 1011.1 |
| 20260503220622 | 55 | 65 | 1.7 | 4.3 | 0.00 | 0.00 | 0.00 | 37 | 1011.0 |
| 20260503220122 | 55 | 300 | 0.9 | 4.3 | 0.00 | 0.00 | 0.00 | 36 | 1010.9 |
| 20260503214122 | 56 | 331 | 3.5 | 7.8 | 0.00 | 0.00 | 0.00 | 35 | 1010.9 |
| 20260503213622 | 56 | 300 | 2.6 | 5.2 | 0.00 | 0.00 | 0.00 | 35 | 1010.8 |
| 20260503213122 | 56 | 325 | 1.7 | 6.1 | 0.00 | 0.00 | 0.00 | 36 | 1010.9 |
| 20260503212622 | 56 | 355 | 1.7 | 6.1 | 0.00 | 0.00 | 0.00 | 35 | 1010.8 |
| 20260503212122 | 56 | 278 | 1.7 | 6.1 | 0.00 | 0.00 | 0.00 | 36 | 1010.8 |
| 20260503211122 | 56 | 272 | 3.5 | 7.0 | 0.00 | 0.00 | 0.00 | 34 | 1010.6 |
| 20260503210622 | 56 | 360 | 0.9 | 6.1 | 0.00 | 0.00 | 0.00 | 34 | 1010.6 |
| 20260503210121 | 56 | 336 | 1.7 | 7.0 | 0.00 | 0.00 | 0.00 | 35 | 1010.6 |
| 20260503205621 | 56 | 290 | 2.6 | 7.0 | 0.00 | 0.00 | 0.00 | 35 | 1010.8 |
| 20260503204622 | 56 | 37 | 0.9 | 6.1 | 0.00 | 0.00 | 0.00 | 35 | 1010.8 |
| 20260503204122 | 56 | 320 | 1.7 | 6.1 | 0.00 | 0.00 | 0.00 | 34 | 1010.9 |
| 20260503203622 | 56 | 259 | 2.6 | 7.8 | 0.00 | 0.00 | 0.00 | 36 | 1010.8 |
| 20260503203122 | 55 | 17 | 1.7 | 7.8 | 0.00 | 0.00 | 0.00 | 35 | 1010.9 |
| 20260503202122 | 55 | 286 | 7.0 | 9.6 | 0.00 | 0.00 | 0.00 | 35 | 1010.8 |
| 20260503201621 | 55 | 259 | 3.5 | 9.6 | 0.00 | 0.00 | 0.00 | 34 | 1010.7 |
| 20260503200621 | 55 | 234 | 2.6 | 11.3 | 0.00 | 0.00 | 0.00 | 35 | 1010.7 |
| 20260503200121 | 55 | 33 | 1.7 | 11.3 | 0.00 | 0.00 | 0.00 | 33 | 1010.9 |
| 20260503195621 | 55 | 5 | 3.5 | 8.7 | 0.00 | 0.00 | 0.00 | 35 | 1011.1 |
| 20260503195121 | 55 | 11 | 3.5 | 8.7 | 0.00 | 0.00 | 0.00 | 35 | 1011.1 |
| 20260503194621 | 55 | 298 | 0.9 | 8.7 | 0.00 | 0.00 | 0.00 | 36 | 1011.1 |
| 20260503194121 | 54 | 296 | 0.0 | 8.7 | 0.00 | 0.00 | 0.00 | 36 | 1011.1 |
| 20260503193621 | 54 | 325 | 3.5 | 8.7 | 0.00 | 0.00 | 0.00 | 34 | 1011.1 |
| 20260503193121 | 54 | 286 | 2.6 | 7.8 | 0.00 | 0.00 | 0.00 | 35 | 1011.1 |
| 20260503192621 | 54 | 17 | 2.6 | 7.8 | 0.00 | 0.00 | 0.00 | 35 | 1011.1 |
| 20260503192121 | 54 | 264 | 0.9 | 7.0 | 0.00 | 0.00 | 0.00 | 37 | 1011.3 |
| 20260503191621 | 54 | 286 | 0.9 | 7.0 | 0.00 | 0.00 | 0.00 | 34 | 1011.5 |
| 20260503191121 | 54 | 355 | 2.6 | 10.4 | 0.00 | 0.00 | 0.00 | 36 | 1011.5 |
| 20260503190121 | 53 | 34 | 2.6 | 10.4 | 0.00 | 0.00 | 0.00 | 35 | 1011.5 |